Simultaneous Nadir Overpasses (SNOs) Predictions

Prediction of SNOs between AQUA and NOAA-19 Satellite Orbit:

Table of predicted SNOs for the next 14.0 days since TLE Epoch: 12/5/2015
Index Date (AQUA) Time (AQUA) Lat,Lon (AQUA) SZA (AQUA ) Date (NOAA-19) Time (NOAA-19) Lat,Lon (NOAA-19) SZA (NOAA-19 ) Distance(km) Time Diff (sec)
1 12/07/2015 08:02:14 -80.60,-156.82 75.34 12/07/2015 08:01:57 -80.59,-156.66 75.36 3.05 17
2 12/07/2015 08:51:38 80.55, 11.35 104.58 12/07/2015 08:52:51 80.55, 11.44 104.54 1.79 73
3 12/09/2015 13:35:57 80.59, -60.19 104.91 12/09/2015 13:36:05 80.59, -60.10 104.89 1.65 8
4 12/11/2015 18:20:15 80.61,-131.47 105.16 12/11/2015 18:19:18 80.61,-131.34 105.17 2.34 57
5 12/11/2015 19:09:40 -80.56, 36.69 74.93 12/11/2015 19:10:21 -80.56, 36.83 74.96 2.56 41
6 12/13/2015 23:53:59 -80.62, -34.96 74.65 12/13/2015 23:53:36 -80.62, -35.01 74.64 1.00 23
7 12/14/2015 00:43:24 80.58, 133.13 105.28 12/14/2015 00:44:30 80.58, 133.04 105.27 1.82 66
8 12/16/2015 05:27:42 80.61, 61.72 105.48 12/16/2015 05:27:43 80.61, 61.74 105.48 0.32 1
9 12/18/2015 10:12:00 80.64, -9.76 105.66 12/18/2015 10:10:56 80.64, -9.60 105.66 3.14 64




NCC Satellite Simultaneous Nadir Overpasses (SNOs) Prediction Service
